P/2018 L5 ( Leonard )

Japanese version
Home page
Updated on September 23, 2018

---------------------------------------------------------------------

* Profile

Discovery Date June 14, 2018
Magnitude 18.5 mag
Discoverer G. J. Leonard (Mount Lemmon)

* Orbital Elements

Epoch 2018 May 2.0 TT = JDT 2458240.5
T 2018 May 4.47159 TT                                   MPCW
q   2.3032763            (2000.0)            P               Q
n   0.14287753     Peri.   93.63225     +0.67887688     +0.73384854
a   3.6237656      Node   219.16025     -0.68803991     +0.62422495
e   0.3643970      Incl.    2.20908     -0.25637329     +0.26797302
P   6.90
From 121 observations 2018 June 8-Sept. 19, mean residual 0".6.

* Magnitudes Graph

        m1 = 13.5 + 5 log d + 10.0 log r

---------------------------------------------------------------------

The orbital elements are published on M.P.E.C. 2018-S50.
The magnitudes graphs are made with Comet for Windows.

---------------------------------------------------------------------

Copyright(C) Seiichi Yoshida (comet@aerith.net). All rights reserved.